Location: Aalen
(48.8330°N, 10.1000°E)
Time: 17:55:46
(UTC+02:00)

Transit 4A - Pass Details

Date: 08 August 2021
Orbit: 871 x 974 km, 66.8° (Epoch: 16 September)

Event Time Altitude Azimuth Distance (km) Brightness Sun altitude
Rises 07:01:20 0° 325° (NW) 3,474 10.7 8.2°
Reaches altitude 10° 07:03:58 10° 333° (NNW) 2,539 10.1 8.6°
Maximum altitude 07:09:29 41° 43° (NE) 1,273 9.5 9.5°
Drops below altitude 10° 07:15:04 10° 113° (ESE) 2,575 11.3 10.4°
Sets 07:17:45 0° 120° (ESE) 3,528 11.7 10.8°
